Location: Newark
(30.1000°N, 109.4667°E)
Time: 14:15:12
(UTC+00:00)

LightSail 2 - Visible Passes

Search period start: 20 January 2020 00:00
Search period end: 30 January 2020 00:00
Orbit: 703 x 720 km, 24.0° (Epoch: 20 January)

Date Brightness Start Highest point End Pass type
(mag) Time Alt. Az. Time Alt. Az. Time Alt. Az.
20 Jan 5.8 12:01:42 10° WSW 12:06:34 42° S 12:06:57 41° SSE visible
21 Jan 6.1 11:03:25 10° WSW 11:08:13 39° S 11:12:12 14° ESE visible
21 Jan 7.0 12:48:35 10° WSW 12:51:09 26° SW 12:51:09 26° SW visible
22 Jan 5.9 11:50:11 10° WSW 11:55:04 42° S 11:56:24 35° SE visible
23 Jan 6.1 10:51:49 10° WSW 10:56:41 42° S 11:01:34 10° ESE visible
23 Jan 6.7 12:37:12 10° WSW 12:40:38 30° SW 12:40:38 30° SW visible
24 Jan 6.1 11:38:44 10° WSW 11:43:31 39° S 11:45:57 24° SE visible
24 Jan 8.1 13:24:37 10° WSW 13:24:54 11° WSW 13:24:54 11° WSW visible
25 Jan 6.2 10:40:18 10° WSW 10:45:08 41° S 10:50:00 10° ESE visible
25 Jan 6.7 12:25:56 10° WSW 12:30:17 27° SSW 12:30:17 27° SSW visible
26 Jan 6.5 11:27:21 10° WSW 11:31:55 32° SSW 11:35:42 14° SE visible
26 Jan 7.9 13:13:56 10° WSW 13:14:39 12° SW 13:14:39 12° SW visible
27 Jan 6.5 10:28:50 10° WSW 10:33:32 37° S 10:38:16 10° ESE visible
27 Jan 7.1 12:14:53 10° WSW 12:18:36 20° SSW 12:20:08 18° S visible
28 Jan 7.0 11:16:06 10° WSW 11:20:15 25° SSW 11:24:25 10° SE visible
29 Jan 7.7 12:04:29 10° SW 12:06:52 13° SSW 12:09:14 10° S visible
